Time,TemperatureF,DewpointF,PressureIn,WindDirection,WindDirectionDegrees,WindSpeedMPH,WindSpeedGustMPH,Humidity,HourlyPrecipIn,Conditions,Clouds,dailyrainin,SolarRadiationWatts/m^2,SoftwareType,DateUTC
2013-08-19 00:01:00,77.5,62.5,29.97,East,94,2.0,2.0,60,0.00,,---,0.00,0.00,VWS V14.01,2013-08-19 05:01:00,
2013-08-19 00:06:00,77.5,62.5,29.97,SE,146,2.0,3.0,60,0.00,,---,0.00,0.00,VWS V14.01,2013-08-19 05:06:00,
2013-08-19 00:11:00,77.4,62.4,29.97,East,101,1.0,5.0,60,0.00,,---,0.00,0.00,VWS V14.01,2013-08-19 05:11:00,
2013-08-19 00:16:00,77.3,62.3,29.96,ESE,107,3.0,6.0,60,0.00,,---,0.00,0.00,VWS V14.01,2013-08-19 05:16:00,
2013-08-19 00:21:00,77.2,62.2,29.96,ESE,113,2.0,6.0,60,0.00,,---,0.00,0.00,VWS V14.01,2013-08-19 05:21:00,
2013-08-19 00:26:00,77.1,62.6,29.97,SE,129,1.0,6.0,61,0.00,,---,0.00,0.00,VWS V14.01,2013-08-19 05:26:00,
2013-08-19 00:31:00,77.1,62.6,29.96,SE,146,1.0,3.0,61,0.00,,---,0.00,0.00,VWS V14.01,2013-08-19 05:31:00,
2013-08-19 00:36:00,77.0,62.5,29.96,ESE,111,2.0,6.0,61,0.00,,---,0.00,0.00,VWS V14.01,2013-08-19 05:36:00,
2013-08-19 00:41:00,76.9,62.4,29.96,ESE,115,1.0,6.0,61,0.00,,---,0.00,0.00,VWS V14.01,2013-08-19 05:41:00,
2013-08-19 00:46:00,76.8,62.8,29.96,ESE,117,3.0,6.0,62,0.00,,---,0.00,0.00,VWS V14.01,2013-08-19 05:46:00,
2013-08-19 00:51:00,76.7,62.7,29.96,SE,141,3.0,6.0,62,0.00,,---,0.00,0.00,VWS V14.01,2013-08-19 05:51:00,
2013-08-19 00:56:00,76.7,62.7,29.96,SE,130,1.0,6.0,62,0.00,,---,0.00,0.00,VWS V14.01,2013-08-19 05:56:00,
2013-08-19 01:01:00,76.6,62.6,29.96,SE,142,2.0,2.0,62,0.00,,---,0.00,0.00,VWS V14.01,2013-08-19 06:01:00,
2013-08-19 01:06:00,76.5,62.5,29.96,SE,125,1.0,4.0,62,0.00,,---,0.00,0.00,VWS V14.01,2013-08-19 06:06:00,
2013-08-19 01:11:00,76.4,62.9,29.96,ESE,119,3.0,4.0,63,0.00,,---,0.00,0.00,VWS V14.01,2013-08-19 06:11:00,
2013-08-19 01:16:00,76.2,62.7,29.96,East,101,3.0,4.0,63,0.00,,---,0.00,0.00,VWS V14.01,2013-08-19 06:16:00,
2013-08-19 01:21:00,76.0,63.0,29.96,East,99,3.0,5.0,64,0.00,,---,0.00,0.00,VWS V14.01,2013-08-19 06:21:00,
2013-08-19 01:26:00,75.7,62.7,29.96,ESE,118,2.0,5.0,64,0.00,,---,0.00,0.00,VWS V14.01,2013-08-19 06:26:00,
2013-08-19 01:31:00,75.5,62.5,29.96,East,101,2.0,2.0,64,0.00,,---,0.00,0.00,VWS V14.01,2013-08-19 06:31:00,
2013-08-19 01:36:00,75.3,62.7,29.96,ESE,113,1.0,4.0,65,0.00,,---,0.00,0.00,VWS V14.01,2013-08-19 06:36:00,
2013-08-19 01:41:00,75.1,62.5,29.96,ESE,107,1.0,6.0,65,0.00,,---,0.00,0.00,VWS V14.01,2013-08-19 06:41:00,
2013-08-19 01:46:00,75.0,62.5,29.96,East,82,2.0,6.0,65,0.00,,---,0.00,0.00,VWS V14.01,2013-08-19 06:46:00,
2013-08-19 01:51:00,74.9,62.8,29.96,ESE,115,2.0,6.0,66,0.00,,---,0.00,0.00,VWS V14.01,2013-08-19 06:51:00,
2013-08-19 01:56:00,74.7,62.6,29.96,ESE,117,2.0,6.0,66,0.00,,---,0.00,0.00,VWS V14.01,2013-08-19 06:56:00,
2013-08-19 02:01:00,74.6,62.5,29.96,ESE,119,2.0,6.0,66,0.00,,---,0.00,0.00,VWS V14.01,2013-08-19 07:01:00,
2013-08-19 02:06:00,74.5,62.4,29.96,ESE,103,1.0,3.0,66,0.00,,---,0.00,0.00,VWS V14.01,2013-08-19 07:06:00,
2013-08-19 02:11:00,74.3,62.6,29.96,ESE,116,2.0,3.0,67,0.00,,---,0.00,0.00,VWS V14.01,2013-08-19 07:11:00,
2013-08-19 02:16:00,74.2,62.5,29.96,ESE,119,1.0,5.0,67,0.00,,---,0.00,0.00,VWS V14.01,2013-08-19 07:16:00,
2013-08-19 02:21:00,74.0,62.4,29.96,East,98,1.0,5.0,67,0.00,,---,0.00,0.00,VWS V14.01,2013-08-19 07:21:00,
2013-08-19 02:26:00,73.9,62.3,29.96,East,90,0.0,5.0,67,0.00,,---,0.00,0.00,VWS V14.01,2013-08-19 07:26:00,
2013-08-19 02:31:00,73.8,62.6,29.96,East,98,3.0,5.0,68,0.00,,---,0.00,0.00,VWS V14.01,2013-08-19 07:31:00,
2013-08-19 02:36:00,73.6,62.4,29.96,ESE,108,1.0,3.0,68,0.00,,---,0.00,0.00,VWS V14.01,2013-08-19 07:36:00,
2013-08-19 02:41:00,73.5,62.3,29.96,East,92,2.0,3.0,68,0.00,,---,0.00,0.00,VWS V14.01,2013-08-19 07:41:00,
2013-08-19 02:46:00,73.4,62.2,29.96,East,97,3.0,5.0,68,0.00,,---,0.00,0.00,VWS V14.01,2013-08-19 07:46:00,
2013-08-19 02:51:00,73.3,62.1,29.96,ESE,107,3.0,5.0,68,0.00,,---,0.00,0.00,VWS V14.01,2013-08-19 07:51:00,
2013-08-19 02:55:00,73.2,62.4,29.96,East,85,1.0,5.0,69,0.00,,---,0.00,0.00,VWS V14.01,2013-08-19 07:55:00,
2013-08-19 03:00:00,73.1,62.3,29.96,East,96,1.0,5.0,69,0.00,,---,0.00,0.00,VWS V14.01,2013-08-19 08:00:00,
2013-08-19 03:05:00,73.0,62.2,29.96,East,98,1.0,6.0,69,0.00,,---,0.00,0.00,VWS V14.01,2013-08-19 08:05:00,
2013-08-19 03:10:00,72.8,62.5,29.95,ESE,107,1.0,6.0,70,0.00,,---,0.00,0.00,VWS V14.01,2013-08-19 08:10:00,
2013-08-19 03:15:00,72.7,62.4,29.95,ESE,110,1.0,6.0,70,0.00,,---,0.00,0.00,VWS V14.01,2013-08-19 08:15:00,
2013-08-19 03:20:00,72.5,62.6,29.95,ESE,111,0.0,6.0,71,0.00,,---,0.00,0.00,VWS V14.01,2013-08-19 08:20:00,
2013-08-19 03:25:00,72.2,62.3,29.95,ESE,111,0.0,6.0,71,0.00,,---,0.00,0.00,VWS V14.01,2013-08-19 08:25:00,
2013-08-19 03:30:00,72.1,62.2,29.95,ESE,111,1.0,6.0,71,0.00,,---,0.00,0.00,VWS V14.01,2013-08-19 08:30:00,
2013-08-19 03:35:00,71.8,61.9,29.95,ESE,111,0.0,1.0,71,0.00,,---,0.00,0.00,VWS V14.01,2013-08-19 08:35:00,
2013-08-19 03:40:00,71.6,62.1,29.95,ESE,111,1.0,1.0,72,0.00,,---,0.00,0.00,VWS V14.01,2013-08-19 08:40:00,
2013-08-19 03:45:00,71.3,61.8,29.96,ESE,110,0.0,2.0,72,0.00,,---,0.00,0.00,VWS V14.01,2013-08-19 08:45:00,
2013-08-19 03:50:00,71.2,61.7,29.96,ESE,110,0.0,2.0,72,0.00,,---,0.00,0.00,VWS V14.01,2013-08-19 08:50:00,
2013-08-19 03:55:00,71.0,61.5,29.95,ESE,110,0.0,2.0,72,0.00,,---,0.00,0.00,VWS V14.01,2013-08-19 08:55:00,
2013-08-19 04:00:00,70.8,61.3,29.95,ESE,111,0.0,2.0,72,0.00,,---,0.00,0.00,VWS V14.01,2013-08-19 09:00:00,
2013-08-19 04:05:00,70.7,61.6,29.96,ESE,111,0.0,1.0,73,0.00,,---,0.00,0.00,VWS V14.01,2013-08-19 09:05:00,
2013-08-19 04:10:00,70.5,61.4,29.95,ESE,111,0.0,1.0,73,0.00,,---,0.00,0.00,VWS V14.01,2013-08-19 09:10:00,
2013-08-19 04:15:00,70.3,61.6,29.95,ESE,111,0.0,1.0,74,0.00,,---,0.00,0.00,VWS V14.01,2013-08-19 09:15:00,
2013-08-19 04:20:00,70.2,61.5,29.95,ESE,111,0.0,1.0,74,0.00,,---,0.00,0.00,VWS V14.01,2013-08-19 09:20:00,
2013-08-19 04:25:00,70.0,61.7,29.95,ESE,110,0.0,2.0,75,0.00,,---,0.00,0.00,VWS V14.01,2013-08-19 09:25:00,
2013-08-19 04:30:00,69.9,61.6,29.95,ESE,110,1.0,3.0,75,0.00,,---,0.00,0.00,VWS V14.01,2013-08-19 09:30:00,
2013-08-19 04:35:00,69.7,61.8,29.95,ESE,110,2.0,3.0,76,0.00,,---,0.00,0.00,VWS V14.01,2013-08-19 09:35:00,
2013-08-19 04:40:00,69.6,61.7,29.95,East,96,3.0,3.0,76,0.00,,---,0.00,0.00,VWS V14.01,2013-08-19 09:40:00,
2013-08-19 04:45:00,69.4,61.9,29.95,East,96,0.0,3.0,77,0.00,,---,0.00,0.00,VWS V14.01,2013-08-19 09:45:00,
2013-08-19 04:50:00,69.3,61.8,29.95,East,96,0.0,3.0,77,0.00,,---,0.00,0.00,VWS V14.01,2013-08-19 09:50:00,
2013-08-19 04:55:00,69.1,61.6,29.95,East,96,1.0,3.0,77,0.00,,---,0.00,0.00,VWS V14.01,2013-08-19 09:55:00,
2013-08-19 05:00:00,69.0,61.5,29.94,East,96,2.0,3.0,77,0.00,,---,0.00,0.00,VWS V14.01,2013-08-19 10:00:00,
2013-08-19 05:05:00,68.8,61.7,29.95,East,96,0.0,1.0,78,0.00,,---,0.00,0.00,VWS V14.01,2013-08-19 10:05:00,
2013-08-19 05:10:00,68.6,61.8,29.95,SSE,158,1.0,2.0,79,0.00,,---,0.00,0.00,VWS V14.01,2013-08-19 10:10:00,
2013-08-19 05:15:00,68.5,61.7,29.95,SSE,158,0.0,2.0,79,0.00,,---,0.00,0.00,VWS V14.01,2013-08-19 10:15:00,
2013-08-19 05:20:00,68.4,62.0,29.94,ESE,109,2.0,3.0,80,0.00,,---,0.00,0.00,VWS V14.01,2013-08-19 10:20:00,
2013-08-19 05:25:00,68.4,62.0,29.95,ESE,109,0.0,3.0,80,0.00,,---,0.00,0.00,VWS V14.01,2013-08-19 10:25:00,
2013-08-19 05:30:00,68.3,61.9,29.95,ESE,109,1.0,3.0,80,0.00,,---,0.00,0.00,VWS V14.01,2013-08-19 10:30:00,
2013-08-19 05:35:00,68.2,61.8,29.94,East,99,3.0,6.0,80,0.00,,---,0.00,0.00,VWS V14.01,2013-08-19 10:35:00,
2013-08-19 05:40:00,68.2,61.8,29.94,ESE,107,1.0,6.0,80,0.00,,---,0.00,0.00,VWS V14.01,2013-08-19 10:40:00,
2013-08-19 05:45:00,68.2,62.2,29.94,East,84,0.0,6.0,81,0.00,,---,0.00,0.00,VWS V14.01,2013-08-19 10:45:00,
2013-08-19 05:50:00,68.2,62.2,29.94,East,92,1.0,6.0,81,0.00,,---,0.00,0.00,VWS V14.01,2013-08-19 10:50:00,
2013-08-19 05:55:00,68.1,62.1,29.94,East,90,0.0,6.0,81,0.00,,---,0.00,0.00,VWS V14.01,2013-08-19 10:55:00,
2013-08-19 06:00:00,68.1,62.1,29.94,East,96,2.0,6.0,81,0.00,,---,0.00,0.00,VWS V14.01,2013-08-19 11:00:00,
2013-08-19 06:05:00,68.0,62.0,29.94,East,90,0.0,2.0,81,0.00,,---,0.00,0.00,VWS V14.01,2013-08-19 11:05:00,
2013-08-19 06:10:00,68.0,62.0,29.94,ENE,69,2.0,6.0,81,0.00,,---,0.00,0.00,VWS V14.01,2013-08-19 11:10:00,
2013-08-19 06:15:00,67.9,61.9,29.94,ESE,103,0.0,6.0,81,0.00,,---,0.00,0.00,VWS V14.01,2013-08-19 11:15:00,
2013-08-19 06:20:00,67.9,61.9,29.95,SSE,151,1.0,6.0,81,0.00,,---,0.00,0.00,VWS V14.01,2013-08-19 11:20:00,
2013-08-19 06:25:00,67.8,61.8,29.94,ESE,115,1.0,6.0,81,0.00,,---,0.00,0.00,VWS V14.01,2013-08-19 11:25:00,
2013-08-19 06:30:00,67.7,61.7,29.94,SE,128,2.0,6.0,81,0.00,,---,0.00,0.00,VWS V14.01,2013-08-19 11:30:00,
2013-08-19 06:35:00,67.7,61.7,29.94,East,93,1.0,9.0,81,0.00,,---,0.00,0.00,VWS V14.01,2013-08-19 11:35:00,
2013-08-19 06:40:00,67.8,61.8,29.94,East,84,1.0,9.0,81,0.00,,---,0.00,0.00,VWS V14.01,2013-08-19 11:40:00,
2013-08-19 06:45:00,67.8,61.8,29.94,East,84,3.0,9.0,81,0.00,,---,0.00,0.00,VWS V14.01,2013-08-19 11:45:00,
2013-08-19 06:50:00,67.9,61.9,29.95,East,91,1.0,9.0,81,0.00,,---,0.00,0.00,VWS V14.01,2013-08-19 11:50:00,
2013-08-19 06:55:00,67.9,61.5,29.95,ESE,105,2.0,9.0,80,0.00,,---,0.00,0.00,VWS V14.01,2013-08-19 11:55:00,
2013-08-19 07:00:00,67.9,61.5,29.95,ESE,102,1.0,9.0,80,0.00,,---,0.00,5.00,VWS V14.01,2013-08-19 12:00:00,
2013-08-19 07:05:00,67.9,61.5,29.96,ESE,110,2.0,3.0,80,0.00,,---,0.00,7.00,VWS V14.01,2013-08-19 12:05:00,
2013-08-19 07:10:00,67.9,61.5,29.96,ESE,104,1.0,3.0,80,0.00,,---,0.00,11.00,VWS V14.01,2013-08-19 12:10:00,
2013-08-19 07:15:00,67.9,61.5,29.96,ESE,112,1.0,3.0,80,0.00,,---,0.00,16.00,VWS V14.01,2013-08-19 12:15:00,
2013-08-19 07:20:00,67.9,61.5,29.96,ESE,109,0.0,3.0,80,0.00,,---,0.00,23.00,VWS V14.01,2013-08-19 12:20:00,
2013-08-19 07:25:00,67.9,61.5,29.96,ESE,109,0.0,3.0,80,0.00,,---,0.00,30.00,VWS V14.01,2013-08-19 12:25:00,
2013-08-19 07:30:00,67.9,61.9,29.97,ESE,109,0.0,3.0,81,0.00,,---,0.00,37.00,VWS V14.01,2013-08-19 12:30:00,
2013-08-19 07:35:00,67.9,61.9,29.96,ESE,109,1.0,2.0,81,0.00,,---,0.00,40.00,VWS V14.01,2013-08-19 12:35:00,
2013-08-19 07:40:00,68.1,62.1,29.96,ENE,78,2.0,3.0,81,0.00,,---,0.00,58.00,VWS V14.01,2013-08-19 12:40:00,
2013-08-19 07:45:00,68.3,61.9,29.96,East,90,5.0,6.0,80,0.00,,---,0.00,69.00,VWS V14.01,2013-08-19 12:45:00,
2013-08-19 07:50:00,68.8,62.4,29.96,ESE,102,4.0,8.0,80,0.00,,---,0.00,83.00,VWS V14.01,2013-08-19 12:50:00,
2013-08-19 07:55:00,69.3,62.2,29.97,ESE,105,3.0,8.0,78,0.00,,---,0.00,97.00,VWS V14.01,2013-08-19 12:55:00,
2013-08-19 08:00:00,69.7,62.2,29.97,East,94,1.0,8.0,77,0.00,,---,0.00,111.00,VWS V14.01,2013-08-19 13:00:00,
2013-08-19 08:05:00,70.1,62.6,29.97,East,99,5.0,6.0,77,0.00,,---,0.00,123.00,VWS V14.01,2013-08-19 13:05:00,
2013-08-19 08:10:00,70.6,62.7,29.97,East,80,5.0,7.0,76,0.00,,---,0.00,128.00,VWS V14.01,2013-08-19 13:10:00,
2013-08-19 08:15:00,71.0,62.7,29.97,SSE,155,2.0,7.0,75,0.00,,---,0.00,121.00,VWS V14.01,2013-08-19 13:15:00,
2013-08-19 08:20:00,71.5,62.8,29.97,ENE,77,1.0,9.0,74,0.00,,---,0.00,116.00,VWS V14.01,2013-08-19 13:20:00,
2013-08-19 08:25:00,72.1,62.6,29.97,ESE,118,1.0,9.0,72,0.00,,---,0.00,185.00,VWS V14.01,2013-08-19 13:25:00,
2013-08-19 08:30:00,72.5,62.6,29.98,SSE,150,3.0,10.0,71,0.00,,---,0.00,178.00,VWS V14.01,2013-08-19 13:30:00,
2013-08-19 08:35:00,73.0,62.7,29.98,ESE,111,3.0,9.0,70,0.00,,---,0.00,156.00,VWS V14.01,2013-08-19 13:35:00,
2013-08-19 08:40:00,73.3,62.5,29.98,ESE,116,3.0,9.0,69,0.00,,---,0.00,158.00,VWS V14.01,2013-08-19 13:40:00,
2013-08-19 08:45:00,73.5,62.7,29.98,East,95,2.0,9.0,69,0.00,,---,0.00,246.00,VWS V14.01,2013-08-19 13:45:00,
2013-08-19 08:50:00,73.7,62.5,29.98,ESE,121,2.0,10.0,68,0.00,,---,0.00,248.00,VWS V14.01,2013-08-19 13:50:00,
2013-08-19 08:55:00,74.0,62.8,29.98,SE,126,1.0,10.0,68,0.00,,---,0.00,174.00,VWS V14.01,2013-08-19 13:55:00,
2013-08-19 09:00:00,74.3,62.6,29.98,SSE,153,3.0,10.0,67,0.00,,---,0.00,134.00,VWS V14.01,2013-08-19 14:00:00,
2013-08-19 09:05:00,74.5,62.8,29.98,East,89,5.0,7.0,67,0.00,,---,0.00,278.00,VWS V14.01,2013-08-19 14:05:00,
2013-08-19 09:10:00,74.8,63.1,29.98,SSE,162,2.0,10.0,67,0.00,,---,0.00,308.00,VWS V14.01,2013-08-19 14:10:00,
2013-08-19 09:15:00,75.4,62.8,29.98,SSE,160,4.0,10.0,65,0.00,,---,0.00,345.00,VWS V14.01,2013-08-19 14:15:00,
2013-08-19 09:20:00,76.1,63.0,29.98,ESE,108,3.0,10.0,64,0.00,,---,0.00,367.00,VWS V14.01,2013-08-19 14:20:00,
2013-08-19 09:25:00,76.7,63.2,29.98,East,79,3.0,11.0,63,0.00,,---,0.00,390.00,VWS V14.01,2013-08-19 14:25:00,
2013-08-19 09:30:00,77.2,63.2,29.99,SE,132,3.0,11.0,62,0.00,,---,0.00,390.00,VWS V14.01,2013-08-19 14:30:00,
2013-08-19 09:35:00,77.6,63.1,29.98,South,174,9.0,12.0,61,0.00,,---,0.00,422.00,VWS V14.01,2013-08-19 14:35:00,
2013-08-19 09:40:00,77.9,62.9,29.98,SE,142,5.0,12.0,60,0.00,,---,0.00,494.00,VWS V14.01,2013-08-19 14:40:00,
2013-08-19 09:45:00,78.4,62.9,29.98,SE,129,3.0,13.0,59,0.00,,---,0.00,415.00,VWS V14.01,2013-08-19 14:45:00,
2013-08-19 09:50:00,78.8,62.8,29.98,SSE,158,6.0,14.0,58,0.00,,---,0.00,214.00,VWS V14.01,2013-08-19 14:50:00,
2013-08-19 09:55:00,78.9,62.4,29.98,SE,128,9.0,15.0,57,0.00,,---,0.00,221.00,VWS V14.01,2013-08-19 14:55:00,
2013-08-19 10:00:00,79.3,61.8,29.98,SSE,155,11.0,15.0,55,0.00,,---,0.00,216.00,VWS V14.01,2013-08-19 15:00:00,
2013-08-19 10:05:00,79.7,62.1,29.99,SSE,150,6.0,15.0,55,0.00,,---,0.00,522.00,VWS V14.01,2013-08-19 15:05:00,
2013-08-19 10:10:00,80.2,62.1,29.99,SSE,148,4.0,16.0,54,0.00,,---,0.00,241.00,VWS V14.01,2013-08-19 15:10:00,
2013-08-19 10:15:00,80.4,62.2,29.99,South,180,5.0,16.0,54,0.00,,---,0.00,248.00,VWS V14.01,2013-08-19 15:15:00,
2013-08-19 10:20:00,80.7,62.0,29.99,SSE,151,8.0,17.0,53,0.00,,---,0.00,494.00,VWS V14.01,2013-08-19 15:20:00,
2013-08-19 10:25:00,81.5,62.2,29.99,SSE,159,12.0,17.0,52,0.00,,---,0.00,541.00,VWS V14.01,2013-08-19 15:25:00,
2013-08-19 10:30:00,82.0,62.1,29.99,SSW,198,7.0,17.0,51,0.00,,---,0.00,258.00,VWS V14.01,2013-08-19 15:30:00,
2013-08-19 10:35:00,82.0,62.7,29.99,South,170,11.0,14.0,52,0.00,,---,0.00,629.00,VWS V14.01,2013-08-19 15:35:00,
2013-08-19 10:40:00,82.5,62.0,29.99,South,173,10.0,19.0,50,0.00,,---,0.00,640.00,VWS V14.01,2013-08-19 15:40:00,
2013-08-19 10:45:00,82.5,61.4,29.99,SSE,167,8.0,20.0,49,0.00,,---,0.00,663.00,VWS V14.01,2013-08-19 15:45:00,
2013-08-19 10:50:00,82.8,61.1,29.99,SSE,164,10.0,20.0,48,0.00,,---,0.00,550.00,VWS V14.01,2013-08-19 15:50:00,
2013-08-19 10:55:00,83.2,61.5,29.99,SSE,153,12.0,20.0,48,0.00,,---,0.00,684.00,VWS V14.01,2013-08-19 15:55:00,
2013-08-19 11:00:00,83.7,61.3,29.99,ESE,120,12.0,20.0,47,0.00,,---,0.00,679.00,VWS V14.01,2013-08-19 16:00:00,
2013-08-19 11:05:00,83.8,61.4,29.99,SSE,163,9.0,21.0,47,0.00,,---,0.00,239.00,VWS V14.01,2013-08-19 16:05:00,
2013-08-19 11:10:00,84.0,61.6,29.99,South,171,15.0,21.0,47,0.00,,---,0.00,677.00,VWS V14.01,2013-08-19 16:10:00,
2013-08-19 11:15:00,84.1,61.7,29.98,SSE,147,12.0,21.0,47,0.00,,---,0.00,691.00,VWS V14.01,2013-08-19 16:15:00,
2013-08-19 11:20:00,84.4,62.0,29.98,South,173,12.0,21.0,47,0.00,,---,0.00,700.00,VWS V14.01,2013-08-19 16:20:00,
2013-08-19 11:25:00,85.2,61.5,29.97,South,181,15.0,21.0,45,0.00,,---,0.00,715.00,VWS V14.01,2013-08-19 16:25:00,
2013-08-19 11:30:00,85.5,61.8,29.96,South,184,6.0,21.0,45,0.00,,---,0.00,726.00,VWS V14.01,2013-08-19 16:30:00,
2013-08-19 11:35:00,85.6,61.2,29.96,SSE,153,13.0,22.0,44,0.00,,---,0.00,738.00,VWS V14.01,2013-08-19 16:35:00,
2013-08-19 11:40:00,85.3,60.9,29.96,South,173,14.0,23.0,44,0.00,,---,0.00,749.00,VWS V14.01,2013-08-19 16:40:00,
2013-08-19 11:45:00,85.5,61.1,29.97,SSE,156,25.0,26.0,44,0.00,,---,0.00,763.00,VWS V14.01,2013-08-19 16:45:00,
2013-08-19 11:50:00,85.9,60.8,29.97,SSW,197,11.0,26.0,43,0.00,,---,0.00,770.00,VWS V14.01,2013-08-19 16:50:00,
2013-08-19 11:55:00,86.5,61.4,29.97,East,94,3.0,26.0,43,0.00,,---,0.00,786.00,VWS V14.01,2013-08-19 16:55:00,
2013-08-19 12:00:00,87.2,62.0,29.97,SE,131,3.0,26.0,43,0.00,,---,0.00,803.00,VWS V14.01,2013-08-19 17:00:00,
2013-08-19 12:05:00,87.5,61.6,29.96,SSE,165,14.0,19.0,42,0.00,,---,0.00,791.00,VWS V14.01,2013-08-19 17:05:00,
2013-08-19 12:10:00,88.3,62.3,29.96,South,172,16.0,19.0,42,0.00,,---,0.00,803.00,VWS V14.01,2013-08-19 17:10:00,
2013-08-19 12:15:00,88.4,61.7,29.96,SE,138,5.0,20.0,41,0.00,,---,0.00,817.00,VWS V14.01,2013-08-19 17:15:00,
2013-08-19 12:20:00,88.7,62.0,29.96,SSE,159,9.0,20.0,41,0.00,,---,0.00,824.00,VWS V14.01,2013-08-19 17:20:00,
2013-08-19 12:25:00,89.0,61.6,29.96,SSE,165,10.0,20.0,40,0.00,,---,0.00,837.00,VWS V14.01,2013-08-19 17:25:00,
2013-08-19 12:30:00,88.7,61.3,29.96,South,173,7.0,21.0,40,0.00,,---,0.00,838.00,VWS V14.01,2013-08-19 17:30:00,
2013-08-19 12:35:00,88.7,61.3,29.96,ESE,103,8.0,21.0,40,0.00,,---,0.00,842.00,VWS V14.01,2013-08-19 17:35:00,
2013-08-19 12:40:00,89.0,60.8,29.95,South,172,7.0,21.0,39,0.00,,---,0.00,847.00,VWS V14.01,2013-08-19 17:40:00,
2013-08-19 12:45:00,89.3,61.1,29.95,SE,146,13.0,21.0,39,0.00,,---,0.00,860.00,VWS V14.01,2013-08-19 17:45:00,
2013-08-19 12:50:00,89.5,62.0,29.95,ESE,109,7.0,21.0,40,0.00,,---,0.00,865.00,VWS V14.01,2013-08-19 17:50:00,
2013-08-19 12:55:00,89.9,61.7,29.95,SSE,155,11.0,21.0,39,0.00,,---,0.00,870.00,VWS V14.01,2013-08-19 17:55:00,
2013-08-19 13:00:00,89.6,61.4,29.95,South,184,13.0,21.0,39,0.00,,---,0.00,877.00,VWS V14.01,2013-08-19 18:00:00,
2013-08-19 13:05:00,89.6,61.4,29.95,SSE,164,7.0,20.0,39,0.00,,---,0.00,877.00,VWS V14.01,2013-08-19 18:05:00,
2013-08-19 13:10:00,90.3,62.0,29.95,South,183,9.0,20.0,39,0.00,,---,0.00,881.00,VWS V14.01,2013-08-19 18:10:00,
2013-08-19 13:15:00,90.8,61.7,29.95,SE,140,16.0,23.0,38,0.00,,---,0.00,886.00,VWS V14.01,2013-08-19 18:15:00,
2013-08-19 13:20:00,90.6,61.5,29.95,ESE,112,12.0,23.0,38,0.00,,---,0.00,889.00,VWS V14.01,2013-08-19 18:20:00,
2013-08-19 13:25:00,90.9,61.8,29.95,South,190,7.0,23.0,38,0.00,,---,0.00,893.00,VWS V14.01,2013-08-19 18:25:00,
2013-08-19 13:30:00,91.2,61.3,29.95,South,169,10.0,23.0,37,0.00,,---,0.00,895.00,VWS V14.01,2013-08-19 18:30:00,
2013-08-19 13:35:00,91.4,62.2,29.94,SSE,156,13.0,17.0,38,0.00,,---,0.00,893.00,VWS V14.01,2013-08-19 18:35:00,
2013-08-19 13:40:00,91.5,61.6,29.94,SSE,155,4.0,18.0,37,0.00,,---,0.00,891.00,VWS V14.01,2013-08-19 18:40:00,
2013-08-19 13:45:00,91.7,61.8,29.94,South,172,10.0,18.0,37,0.00,,---,0.00,891.00,VWS V14.01,2013-08-19 18:45:00,
2013-08-19 13:50:00,92.0,62.0,29.94,SE,138,18.0,18.0,37,0.00,,---,0.00,893.00,VWS V14.01,2013-08-19 18:50:00,
2013-08-19 13:55:00,91.7,62.5,29.94,SSE,147,5.0,18.0,38,0.00,,---,0.00,886.00,VWS V14.01,2013-08-19 18:55:00,
2013-08-19 14:00:00,92.1,62.1,29.93,South,180,14.0,21.0,37,0.00,,---,0.00,884.00,VWS V14.01,2013-08-19 19:00:00,
2013-08-19 14:05:00,92.4,62.4,29.93,South,171,9.0,13.0,37,0.00,,---,0.00,881.00,VWS V14.01,2013-08-19 19:05:00,
2013-08-19 14:09:00,92.5,61.7,29.93,SSE,164,8.0,16.0,36,0.00,,---,0.00,877.00,VWS V14.01,2013-08-19 19:09:00,
2013-08-19 14:14:00,92.6,62.5,29.93,SSE,152,14.0,18.0,37,0.00,,---,0.00,870.00,VWS V14.01,2013-08-19 19:14:00,
2013-08-19 14:19:00,92.7,62.6,29.93,SE,144,8.0,21.0,37,0.00,,---,0.00,865.00,VWS V14.01,2013-08-19 19:19:00,
2013-08-19 14:24:00,92.8,62.7,29.93,SSE,166,17.0,21.0,37,0.00,,---,0.00,853.00,VWS V14.01,2013-08-19 19:24:00,
2013-08-19 14:29:00,92.6,62.5,29.93,SSE,163,8.0,21.0,37,0.00,,---,0.00,853.00,VWS V14.01,2013-08-19 19:29:00,
2013-08-19 14:34:00,92.9,62.0,29.93,SSE,158,4.0,11.0,36,0.00,,---,0.00,856.00,VWS V14.01,2013-08-19 19:34:00,
2013-08-19 14:39:00,93.3,62.4,29.92,South,169,7.0,17.0,36,0.00,,---,0.00,856.00,VWS V14.01,2013-08-19 19:39:00,
2013-08-19 14:44:00,93.8,62.8,29.92,SE,130,5.0,17.0,36,0.00,,---,0.00,846.00,VWS V14.01,2013-08-19 19:44:00,
2013-08-19 14:49:00,93.6,62.7,29.92,SSE,154,6.0,18.0,36,0.00,,---,0.00,840.00,VWS V14.01,2013-08-19 19:49:00,
2013-08-19 14:54:00,93.6,61.8,29.92,SSE,160,9.0,18.0,35,0.00,,---,0.00,831.00,VWS V14.01,2013-08-19 19:54:00,
2013-08-19 14:59:00,93.6,62.7,29.92,South,172,15.0,19.0,36,0.00,,---,0.00,830.00,VWS V14.01,2013-08-19 19:59:00,
2013-08-19 15:04:00,93.0,62.1,29.91,South,184,12.0,20.0,36,0.00,,---,0.00,823.00,VWS V14.01,2013-08-19 20:04:00,
2013-08-19 15:09:00,92.8,62.0,29.91,South,177,10.0,20.0,36,0.00,,---,0.00,816.00,VWS V14.01,2013-08-19 20:09:00,
2013-08-19 15:14:00,92.8,62.7,29.91,ESE,104,11.0,20.0,37,0.00,,---,0.00,807.00,VWS V14.01,2013-08-19 20:14:00,
2013-08-19 15:19:00,93.0,62.1,29.91,South,172,8.0,20.0,36,0.00,,---,0.00,796.00,VWS V14.01,2013-08-19 20:19:00,
2013-08-19 15:24:00,93.2,62.3,29.91,ENE,74,7.0,20.0,36,0.00,,---,0.00,786.00,VWS V14.01,2013-08-19 20:24:00,
2013-08-19 15:29:00,93.8,62.0,29.91,SSE,155,5.0,20.0,35,0.00,,---,0.00,789.00,VWS V14.01,2013-08-19 20:29:00,
2013-08-19 15:34:00,94.0,62.2,29.91,ESE,122,2.0,17.0,35,0.00,,---,0.00,779.00,VWS V14.01,2013-08-19 20:34:00,
2013-08-19 15:39:00,94.3,62.5,29.90,ENE,65,14.0,17.0,35,0.00,,---,0.00,775.00,VWS V14.01,2013-08-19 20:39:00,
2013-08-19 15:44:00,94.4,62.5,29.90,East,98,6.0,20.0,35,0.00,,---,0.00,761.00,VWS V14.01,2013-08-19 20:44:00,
2013-08-19 15:49:00,94.2,63.2,29.90,SE,131,5.0,20.0,36,0.00,,---,0.00,754.00,VWS V14.01,2013-08-19 20:49:00,
2013-08-19 15:54:00,94.5,62.6,29.89,SSW,192,9.0,20.0,35,0.00,,---,0.00,749.00,VWS V14.01,2013-08-19 20:54:00,
2013-08-19 15:59:00,94.6,61.9,29.89,South,180,4.0,20.0,34,0.00,,---,0.00,735.00,VWS V14.01,2013-08-19 20:59:00,
2013-08-19 16:04:00,94.5,62.6,29.89,South,186,10.0,13.0,35,0.00,,---,0.00,722.00,VWS V14.01,2013-08-19 21:04:00,
2013-08-19 16:09:00,94.1,62.3,29.89,SSE,158,4.0,14.0,35,0.00,,---,0.00,708.00,VWS V14.01,2013-08-19 21:09:00,
2013-08-19 16:14:00,94.2,62.4,29.89,East,96,13.0,14.0,35,0.00,,---,0.00,691.00,VWS V14.01,2013-08-19 21:14:00,
2013-08-19 16:19:00,94.2,62.4,29.89,SSE,167,7.0,15.0,35,0.00,,---,0.00,677.00,VWS V14.01,2013-08-19 21:19:00,
2013-08-19 16:24:00,94.0,62.2,29.88,SE,145,6.0,18.0,35,0.00,,---,0.00,657.00,VWS V14.01,2013-08-19 21:24:00,
2013-08-19 16:29:00,94.3,62.5,29.88,SE,133,4.0,18.0,35,0.00,,---,0.00,647.00,VWS V14.01,2013-08-19 21:29:00,
2013-08-19 16:34:00,94.5,62.6,29.88,ESE,112,9.0,14.0,35,0.00,,---,0.00,635.00,VWS V14.01,2013-08-19 21:34:00,
2013-08-19 16:39:00,94.4,62.5,29.88,SSE,166,14.0,16.0,35,0.00,,---,0.00,626.00,VWS V14.01,2013-08-19 21:39:00,
2013-08-19 16:44:00,94.6,62.7,29.88,East,100,3.0,16.0,35,0.00,,---,0.00,612.00,VWS V14.01,2013-08-19 21:44:00,
2013-08-19 16:49:00,94.9,63.0,29.88,SSE,153,13.0,16.0,35,0.00,,---,0.00,598.00,VWS V14.01,2013-08-19 21:49:00,
2013-08-19 16:54:00,94.5,61.8,29.87,SSE,147,14.0,18.0,34,0.00,,---,0.00,582.00,VWS V14.01,2013-08-19 21:54:00,
2013-08-19 16:59:00,94.4,62.5,29.87,SE,135,4.0,18.0,35,0.00,,---,0.00,568.00,VWS V14.01,2013-08-19 21:59:00,
2013-08-19 17:04:00,94.3,62.5,29.87,ESE,110,4.0,12.0,35,0.00,,---,0.00,545.00,VWS V14.01,2013-08-19 22:04:00,
2013-08-19 17:09:00,94.3,62.5,29.87,SE,144,4.0,16.0,35,0.00,,---,0.00,534.00,VWS V14.01,2013-08-19 22:09:00,
2013-08-19 17:14:00,94.2,62.4,29.87,SSE,159,6.0,16.0,35,0.00,,---,0.00,515.00,VWS V14.01,2013-08-19 22:14:00,
2013-08-19 17:19:00,94.5,62.6,29.87,SE,130,7.0,16.0,35,0.00,,---,0.00,499.00,VWS V14.01,2013-08-19 22:19:00,
2013-08-19 17:24:00,94.4,61.7,29.87,ESE,104,7.0,17.0,34,0.00,,---,0.00,480.00,VWS V14.01,2013-08-19 22:24:00,
2013-08-19 17:29:00,94.1,62.3,29.87,SSE,167,7.0,17.0,35,0.00,,---,0.00,462.00,VWS V14.01,2013-08-19 22:29:00,
2013-08-19 17:34:00,93.6,61.8,29.87,South,180,9.0,13.0,35,0.00,,---,0.00,448.00,VWS V14.01,2013-08-19 22:34:00,
2013-08-19 17:39:00,93.6,61.8,29.86,SSE,154,6.0,13.0,35,0.00,,---,0.00,432.00,VWS V14.01,2013-08-19 22:39:00,
2013-08-19 17:44:00,93.6,61.8,29.86,South,173,11.0,16.0,35,0.00,,---,0.00,418.00,VWS V14.01,2013-08-19 22:44:00,
2013-08-19 17:49:00,93.5,61.8,29.86,SSE,150,8.0,16.0,35,0.00,,---,0.00,403.00,VWS V14.01,2013-08-19 22:49:00,
2013-08-19 17:54:00,93.3,61.6,29.86,SE,130,1.0,16.0,35,0.00,,---,0.00,381.00,VWS V14.01,2013-08-19 22:54:00,
2013-08-19 17:59:00,93.5,62.6,29.86,South,172,11.0,17.0,36,0.00,,---,0.00,366.00,VWS V14.01,2013-08-19 22:59:00,
2013-08-19 18:04:00,93.4,61.7,29.86,ENE,69,4.0,11.0,35,0.00,,---,0.00,350.00,VWS V14.01,2013-08-19 23:04:00,
2013-08-19 18:09:00,93.4,61.7,29.86,SSE,147,2.0,15.0,35,0.00,,---,0.00,334.00,VWS V14.01,2013-08-19 23:09:00,
2013-08-19 18:14:00,93.5,61.8,29.86,SE,140,2.0,15.0,35,0.00,,---,0.00,320.00,VWS V14.01,2013-08-19 23:14:00,
2013-08-19 18:19:00,93.6,61.8,29.85,SE,130,10.0,15.0,35,0.00,,---,0.00,302.00,VWS V14.01,2013-08-19 23:19:00,
2013-08-19 18:24:00,93.6,61.8,29.86,East,84,5.0,15.0,35,0.00,,---,0.00,287.00,VWS V14.01,2013-08-19 23:24:00,
2013-08-19 18:29:00,93.3,61.6,29.85,SSE,158,7.0,15.0,35,0.00,,---,0.00,269.00,VWS V14.01,2013-08-19 23:29:00,
2013-08-19 18:34:00,93.2,61.5,29.85,SE,130,3.0,10.0,35,0.00,,---,0.00,250.00,VWS V14.01,2013-08-19 23:34:00,
2013-08-19 18:39:00,93.1,61.4,29.85,South,171,3.0,11.0,35,0.00,,---,0.00,234.00,VWS V14.01,2013-08-19 23:39:00,
2013-08-19 18:44:00,93.0,61.3,29.85,SE,130,4.0,11.0,35,0.00,,---,0.00,214.00,VWS V14.01,2013-08-19 23:44:00,
2013-08-19 18:49:00,92.6,61.8,29.85,South,175,2.0,11.0,36,0.00,,---,0.00,202.00,VWS V14.01,2013-08-19 23:49:00,
2013-08-19 18:54:00,92.4,62.4,29.85,SE,132,2.0,13.0,37,0.00,,---,0.00,190.00,VWS V14.01,2013-08-19 23:54:00,
2013-08-19 18:59:00,92.3,61.5,29.85,SE,133,3.0,13.0,36,0.00,,---,0.00,171.00,VWS V14.01,2013-08-19 23:59:00,
2013-08-19 19:04:00,92.1,62.1,29.85,SSE,155,4.0,10.0,37,0.00,,---,0.00,155.00,VWS V14.01,2013-08-20 00:04:00,
2013-08-19 19:09:00,91.7,61.8,29.85,SSE,150,3.0,13.0,37,0.00,,---,0.00,137.00,VWS V14.01,2013-08-20 00:09:00,
2013-08-19 19:14:00,91.5,61.6,29.85,SE,141,5.0,13.0,37,0.00,,---,0.00,113.00,VWS V14.01,2013-08-20 00:14:00,
2013-08-19 19:19:00,91.4,61.5,29.85,East,80,6.0,13.0,37,0.00,,---,0.00,72.00,VWS V14.01,2013-08-20 00:19:00,
2013-08-19 19:24:00,91.1,61.2,29.85,SE,134,2.0,13.0,37,0.00,,---,0.00,84.00,VWS V14.01,2013-08-20 00:24:00,
2013-08-19 19:29:00,91.0,61.9,29.85,East,90,3.0,13.0,38,0.00,,---,0.00,81.00,VWS V14.01,2013-08-20 00:29:00,
2013-08-19 19:34:00,91.0,61.9,29.85,SSE,153,2.0,4.0,38,0.00,,---,0.00,70.00,VWS V14.01,2013-08-20 00:34:00,
2013-08-19 19:39:00,90.8,61.7,29.85,SE,132,2.0,5.0,38,0.00,,---,0.00,58.00,VWS V14.01,2013-08-20 00:39:00,
2013-08-19 19:44:00,90.7,62.4,29.85,SSE,149,2.0,5.0,39,0.00,,---,0.00,47.00,VWS V14.01,2013-08-20 00:44:00,
2013-08-19 19:49:00,90.4,62.1,29.85,SSE,150,1.0,7.0,39,0.00,,---,0.00,39.00,VWS V14.01,2013-08-20 00:49:00,
2013-08-19 19:54:00,90.2,61.9,29.86,ESE,113,2.0,7.0,39,0.00,,---,0.00,32.00,VWS V14.01,2013-08-20 00:54:00,
2013-08-19 19:59:00,89.9,61.7,29.85,SSE,150,1.0,7.0,39,0.00,,---,0.00,25.00,VWS V14.01,2013-08-20 00:59:00,
2013-08-19 20:04:00,89.6,62.1,29.85,SE,125,1.0,3.0,40,0.00,,---,0.00,18.00,VWS V14.01,2013-08-20 01:04:00,
2013-08-19 20:09:00,89.3,61.8,29.85,SSE,164,1.0,3.0,40,0.00,,---,0.00,11.00,VWS V14.01,2013-08-20 01:09:00,
2013-08-19 20:14:00,88.9,62.2,29.86,ESE,118,0.0,3.0,41,0.00,,---,0.00,0.00,VWS V14.01,2013-08-20 01:14:00,
2013-08-19 20:19:00,88.5,62.5,29.86,SE,128,1.0,3.0,42,0.00,,---,0.00,0.00,VWS V14.01,2013-08-20 01:19:00,
2013-08-19 20:24:00,88.0,62.0,29.86,East,92,1.0,3.0,42,0.00,,---,0.00,0.00,VWS V14.01,2013-08-20 01:24:00,
2013-08-19 20:29:00,87.4,62.2,29.86,East,92,1.0,5.0,43,0.00,,---,0.00,0.00,VWS V14.01,2013-08-20 01:29:00,
2013-08-19 20:34:00,86.9,62.4,29.86,East,92,0.0,1.0,44,0.00,,---,0.00,0.00,VWS V14.01,2013-08-20 01:34:00,
2013-08-19 20:39:00,86.3,61.8,29.86,East,93,0.0,3.0,44,0.00,,---,0.00,0.00,VWS V14.01,2013-08-20 01:39:00,
2013-08-19 20:44:00,85.8,62.0,29.86,East,94,1.0,3.0,45,0.00,,---,0.00,0.00,VWS V14.01,2013-08-20 01:44:00,
2013-08-19 20:49:00,85.2,62.1,29.86,ESE,103,2.0,5.0,46,0.00,,---,0.00,0.00,VWS V14.01,2013-08-20 01:49:00,
2013-08-19 20:54:00,84.5,62.1,29.86,East,94,2.0,7.0,47,0.00,,---,0.00,0.00,VWS V14.01,2013-08-20 01:54:00,
2013-08-19 20:59:00,84.1,61.7,29.87,ESE,106,4.0,7.0,47,0.00,,---,0.00,0.00,VWS V14.01,2013-08-20 01:59:00,
2013-08-19 21:04:00,83.8,62.0,29.87,ESE,104,2.0,5.0,48,0.00,,---,0.00,0.00,VWS V14.01,2013-08-20 02:04:00,
2013-08-19 21:09:00,83.5,61.8,29.87,East,99,3.0,5.0,48,0.00,,---,0.00,0.00,VWS V14.01,2013-08-20 02:09:00,
2013-08-19 21:14:00,83.2,61.5,29.87,East,84,2.0,5.0,48,0.00,,---,0.00,0.00,VWS V14.01,2013-08-20 02:14:00,
2013-08-19 21:19:00,83.0,61.9,29.87,ESE,122,1.0,5.0,49,0.00,,---,0.00,0.00,VWS V14.01,2013-08-20 02:19:00,
2013-08-19 21:24:00,82.7,62.2,29.87,ESE,123,2.0,5.0,50,0.00,,---,0.00,0.00,VWS V14.01,2013-08-20 02:24:00,
2013-08-19 21:29:00,82.5,62.0,29.88,ESE,118,1.0,6.0,50,0.00,,---,0.00,0.00,VWS V14.01,2013-08-20 02:29:00,
2013-08-19 21:34:00,82.2,62.3,29.88,East,98,1.0,2.0,51,0.00,,---,0.00,0.00,VWS V14.01,2013-08-20 02:34:00,
2013-08-19 21:39:00,82.0,62.1,29.88,East,97,2.0,6.0,51,0.00,,---,0.00,0.00,VWS V14.01,2013-08-20 02:39:00,
2013-08-19 21:44:00,81.8,61.9,29.88,East,92,2.0,6.0,51,0.00,,---,0.00,0.00,VWS V14.01,2013-08-20 02:44:00,
2013-08-19 21:49:00,81.7,62.4,29.89,ESE,103,2.0,6.0,52,0.00,,---,0.00,0.00,VWS V14.01,2013-08-20 02:49:00,
2013-08-19 21:54:00,81.6,62.3,29.89,ESE,104,2.0,6.0,52,0.00,,---,0.00,0.00,VWS V14.01,2013-08-20 02:54:00,
2013-08-19 21:59:00,81.5,62.2,29.89,East,80,2.0,6.0,52,0.00,,---,0.00,0.00,VWS V14.01,2013-08-20 02:59:00,
2013-08-19 22:04:00,81.4,62.1,29.89,East,79,1.0,5.0,52,0.00,,---,0.00,0.00,VWS V14.01,2013-08-20 03:04:00,
2013-08-19 22:09:00,81.3,62.0,29.89,East,95,2.0,7.0,52,0.00,,---,0.00,0.00,VWS V14.01,2013-08-20 03:09:00,
2013-08-19 22:14:00,81.3,62.0,29.89,ESE,111,2.0,7.0,52,0.00,,---,0.00,0.00,VWS V14.01,2013-08-20 03:14:00,
2013-08-19 22:19:00,81.3,62.0,29.89,SE,138,4.0,7.0,52,0.00,,---,0.00,0.00,VWS V14.01,2013-08-20 03:19:00,
2013-08-19 22:24:00,81.3,62.0,29.89,ESE,102,2.0,7.0,52,0.00,,---,0.00,0.00,VWS V14.01,2013-08-20 03:24:00,
2013-08-19 22:29:00,81.2,61.9,29.89,ESE,102,2.0,7.0,52,0.00,,---,0.00,0.00,VWS V14.01,2013-08-20 03:29:00,
2013-08-19 22:34:00,81.2,61.9,29.89,ESE,110,3.0,5.0,52,0.00,,---,0.00,0.00,VWS V14.01,2013-08-20 03:34:00,
2013-08-19 22:39:00,81.2,61.9,29.89,ESE,110,4.0,7.0,52,0.00,,---,0.00,0.00,VWS V14.01,2013-08-20 03:39:00,
2013-08-19 22:44:00,81.2,61.4,29.89,East,83,3.0,7.0,51,0.00,,---,0.00,0.00,VWS V14.01,2013-08-20 03:44:00,
2013-08-19 22:49:00,81.2,61.4,29.89,SE,133,2.0,7.0,51,0.00,,---,0.00,0.00,VWS V14.01,2013-08-20 03:49:00,
2013-08-19 22:54:00,81.2,61.4,29.89,ESE,105,3.0,7.0,51,0.00,,---,0.00,0.00,VWS V14.01,2013-08-20 03:54:00,
2013-08-19 22:59:00,81.1,61.3,29.89,ESE,120,2.0,7.0,51,0.00,,---,0.00,0.00,VWS V14.01,2013-08-20 03:59:00,
2013-08-19 23:01:00,81.1,61.8,29.89,ESE,106,1.0,7.0,52,0.00,,---,0.00,0.00,VWS V14.01,2013-08-20 04:01:00,
2013-08-19 23:06:00,81.0,61.7,29.89,East,100,1.0,7.0,52,0.00,,---,0.00,0.00,VWS V14.01,2013-08-20 04:06:00,
2013-08-19 23:11:00,80.9,61.6,29.90,ESE,123,2.0,7.0,52,0.00,,---,0.00,0.00,VWS V14.01,2013-08-20 04:11:00,
2013-08-19 23:16:00,80.8,61.5,29.90,ESE,111,2.0,7.0,52,0.00,,---,0.00,0.00,VWS V14.01,2013-08-20 04:16:00,
2013-08-19 23:21:00,80.7,61.5,29.90,ESE,108,2.0,7.0,52,0.00,,---,0.00,0.00,VWS V14.01,2013-08-20 04:21:00,
2013-08-19 23:26:00,80.6,61.4,29.90,East,92,1.0,7.0,52,0.00,,---,0.00,0.00,VWS V14.01,2013-08-20 04:26:00,
2013-08-19 23:31:00,80.4,61.2,29.90,ESE,105,2.0,2.0,52,0.00,,---,0.00,0.00,VWS V14.01,2013-08-20 04:31:00,
2013-08-19 23:36:00,80.3,61.1,29.90,ESE,115,1.0,3.0,52,0.00,,---,0.00,0.00,VWS V14.01,2013-08-20 04:36:00,
2013-08-19 23:41:00,80.2,61.0,29.90,ESE,119,3.0,6.0,52,0.00,,---,0.00,0.00,VWS V14.01,2013-08-20 04:41:00,
2013-08-19 23:46:00,80.2,61.0,29.90,ESE,104,3.0,6.0,52,0.00,,---,0.00,0.00,VWS V14.01,2013-08-20 04:46:00,
2013-08-19 23:51:00,80.1,60.9,29.90,East,94,3.0,7.0,52,0.00,,---,0.00,0.00,VWS V14.01,2013-08-20 04:51:00,
2013-08-19 23:56:00,80.0,60.8,29.90,ESE,111,1.0,7.0,52,0.00,,---,0.00,0.00,VWS V14.01,2013-08-20 04:56:00,